• In Latvia
  • List of Countries
  • For 7 days
  • Water Temperature
  • Satellite Maps
  • Weather Map
  • Weather Widgets
  • user-avatar
    Login

    Hourly Weather Kostindor

    Today, 17 July, Tuesday

    Time Temperature Precipitation Wind Pressure Humidity
    00:00 +19°C° 0 mm 3 mps 746 mmHg 85%
    01:00 +19°C° 0 mm 3 mps 746 mmHg 86%
    02:00 +18°C° 0 mm 3 mps 747 mmHg 87%
    03:00 +19°C° 0 mm 3 mps 747 mmHg 84%
    04:00 +19°C° 0 mm 3 mps 747 mmHg 81%
    05:00 +20°C° 0 mm 4 mps 747 mmHg 78%
    06:00 +21°C° 0 mm 4 mps 747 mmHg 71%
    07:00 +23°C° 0 mm 5 mps 747 mmHg 65%
    08:00 +25°C° 0 mm 5 mps 747 mmHg 58%
    09:00 +26°C° 0 mm 5 mps 746 mmHg 55%
    10:00 +27°C° 0 mm 5 mps 746 mmHg 51%
    11:00 +28°C° 0 mm 6 mps 746 mmHg 48%
    12:00 +29°C° 0 mm 6 mps 746 mmHg 47%
    13:00 +29°C° 0 mm 6 mps 745 mmHg 45%
    14:00 +29°C° 0 mm 6 mps 745 mmHg 44%
    15:00 +29°C° 0 mm 6 mps 745 mmHg 45%
    16:00 +29°C° 0 mm 5 mps 745 mmHg 47%
    17:00 +28°C° 0 mm 5 mps 745 mmHg 48%
    18:00 +27°C° 0 mm 5 mps 745 mmHg 53%
    19:00 +25°C° 0 mm 4 mps 744 mmHg 58%
    20:00 +23°C° 0 mm 4 mps 744 mmHg 63%
    21:00 +22°C° 0 mm 4 mps 744 mmHg 65%
    22:00 +22°C° 0 mm 4 mps 744 mmHg 67%
    23:00 +21°C° 0 mm 4 mps 744 mmHg 69%

    Tomorrow, 18 July, Wednesday

    Time Temperature Precipitation Wind Pressure Humidity
    00:00 +21°C° 0 mm 4 mps 744 mmHg 71%
    01:00 +20°C° 0 mm 4 mps 744 mmHg 73%
    02:00 +20°C° 0 mm 5 mps 744 mmHg 75%
    03:00 +20°C° 0.2 mm 5 mps 744 mmHg 76%
    04:00 +20°C° 0.2 mm 5 mps 744 mmHg 77%
    05:00 +20°C° 0.2 mm 5 mps 744 mmHg 78%
    06:00 +21°C° 0.3 mm 5 mps 744 mmHg 74%
    07:00 +22°C° 0.3 mm 5 mps 744 mmHg 70%
    08:00 +23°C° 0.3 mm 6 mps 744 mmHg 66%
    09:00 +24°C° 0.1 mm 6 mps 744 mmHg 62%
    10:00 +26°C° 0.1 mm 6 mps 743 mmHg 58%
    11:00 +28°C° 0.1 mm 6 mps 743 mmHg 54%
    12:00 +28°C° 0.2 mm 6 mps 743 mmHg 55%
    13:00 +28°C° 0.2 mm 6 mps 743 mmHg 56%
    14:00 +28°C° 0.2 mm 6 mps 743 mmHg 58%
    15:00 +27°C° 0.3 mm 6 mps 743 mmHg 63%
    16:00 +26°C° 0.3 mm 6 mps 743 mmHg 68%
    17:00 +25°C° 0.3 mm 5 mps 743 mmHg 74%
    18:00 +23°C° 0.1 mm 5 mps 743 mmHg 75%
    19:00 +22°C° 0.1 mm 5 mps 743 mmHg 77%
    20:00 +21°C° 0.1 mm 5 mps 743 mmHg 79%
    21:00 +21°C° 0.1 mm 5 mps 743 mmHg 80%
    22:00 +20°C° 0.1 mm 4 mps 743 mmHg 82%
    23:00 +20°C° 0.1 mm 4 mps 743 mmHg 84%

    Day after tomorrow, 19 July, Thursday

    Time Temperature Precipitation Wind Pressure Humidity
    00:00 +20°C° 0 mm 4 mps 743 mmHg 84%
    01:00 +20°C° 0 mm 4 mps 743 mmHg 84%
    02:00 +20°C° 0 mm 4 mps 743 mmHg 84%
    03:00 +20°C° 0 mm 4 mps 743 mmHg 83%
    04:00 +20°C° 0 mm 5 mps 743 mmHg 82%
    05:00 +20°C° 0 mm 5 mps 743 mmHg 81%
    06:00 +21°C° 0.1 mm 5 mps 743 mmHg 78%
    07:00 +21°C° 0.1 mm 5 mps 743 mmHg 75%
    08:00 +22°C° 0.1 mm 5 mps 743 mmHg 72%
    09:00 +22°C° 0.1 mm 5 mps 743 mmHg 73%
    10:00 +22°C° 0.1 mm 5 mps 743 mmHg 74%
    11:00 +22°C° 0.1 mm 5 mps 743 mmHg 75%
    12:00 +23°C° 0.1 mm 5 mps 743 mmHg 74%
    13:00 +23°C° 0.1 mm 5 mps 743 mmHg 72%
    14:00 +25°C° 0.1 mm 5 mps 743 mmHg 70%
    15:00 +25°C° 0.3 mm 5 mps 743 mmHg 73%
    16:00 +25°C° 0.3 mm 5 mps 743 mmHg 75%
    17:00 +25°C° 0.3 mm 5 mps 743 mmHg 77%
    18:00 +23°C° 0.2 mm 4 mps 743 mmHg 80%
    19:00 +22°C° 0.2 mm 4 mps 743 mmHg 84%
    20:00 +21°C° 0.2 mm 4 mps 743 mmHg 88%
    21:00 +20°C° 0.1 mm 4 mps 743 mmHg 90%
    22:00 +20°C° 0.1 mm 4 mps 743 mmHg 92%
    23:00 +19°C° 0.1 mm 4 mps 743 mmHg 94%

    20 July, Friday

    Time Temperature Precipitation Wind Pressure Humidity
    00:00 +19°C° 0 mm 4 mps 743 mmHg 95%
    01:00 +19°C° 0 mm 4 mps 743 mmHg 96%
    02:00 +19°C° 0 mm 4 mps 743 mmHg 97%
    03:00 +19°C° 0.1 mm 4 mps 743 mmHg 96%
    04:00 +19°C° 0.1 mm 4 mps 743 mmHg 95%
    05:00 +19°C° 0.1 mm 4 mps 743 mmHg 94%
    06:00 +20°C° 0.1 mm 5 mps 743 mmHg 92%
    07:00 +20°C° 0.1 mm 5 mps 743 mmHg 90%
    08:00 +21°C° 0.1 mm 5 mps 743 mmHg 88%
    09:00 +22°C° 0.3 mm 5 mps 743 mmHg 84%
    10:00 +22°C° 0.3 mm 5 mps 744 mmHg 81%
    11:00 +23°C° 0.3 mm 5 mps 744 mmHg 78%
    12:00 +25°C° 0.6 mm 5 mps 744 mmHg 77%
    13:00 +25°C° 0.6 mm 5 mps 743 mmHg 75%
    14:00 +26°C° 0.6 mm 5 mps 743 mmHg 73%
    15:00 +26°C° 0.4 mm 5 mps 743 mmHg 73%
    16:00 +26°C° 0.4 mm 5 mps 743 mmHg 73%
    17:00 +26°C° 0.4 mm 5 mps 743 mmHg 73%
    18:00 +25°C° 0.6 mm 4 mps 743 mmHg 78%
    19:00 +23°C° 0.6 mm 4 mps 743 mmHg 83%
    20:00 +22°C° 0.6 mm 4 mps 743 mmHg 88%
    21:00 +21°C° 0.1 mm 3 mps 743 mmHg 90%
    22:00 +20°C° 0.1 mm 3 mps 742 mmHg 92%
    23:00 +20°C° 0.1 mm 3 mps 742 mmHg 95%

    21 July, Saturday

    Time Temperature Precipitation Wind Pressure Humidity
    00:00 +20°C° 0.1 mm 3 mps 742 mmHg 96%
    01:00 +19°C° 0.1 mm 3 mps 743 mmHg 96%
    02:00 +19°C° 0.1 mm 3 mps 743 mmHg 97%
    03:00 +19°C° 0 mm 3 mps 743 mmHg 96%
    04:00 +20°C° 0 mm 4 mps 743 mmHg 95%
    05:00 +20°C° 0 mm 4 mps 743 mmHg 94%
    06:00 +21°C° 0 mm 4 mps 743 mmHg 89%
    07:00 +23°C° 0 mm 4 mps 743 mmHg 83%
    08:00 +25°C° 0 mm 4 mps 743 mmHg 78%
    09:00 +26°C° 0.3 mm 4 mps 743 mmHg 75%
    10:00 +27°C° 0.3 mm 5 mps 743 mmHg 72%
    11:00 +28°C° 0.3 mm 5 mps 743 mmHg 69%
    12:00 +28°C° 0.4 mm 5 mps 743 mmHg 68%
    13:00 +29°C° 0.4 mm 5 mps 743 mmHg 68%
    14:00 +29°C° 0.4 mm 5 mps 742 mmHg 67%
    15:00 +28°C° 0.5 mm 5 mps 742 mmHg 71%
    16:00 +27°C° 0.5 mm 4 mps 742 mmHg 75%
    17:00 +26°C° 0.5 mm 4 mps 742 mmHg 79%
    18:00 +25°C° 0 mm 4 mps 742 mmHg 81%
    19:00 +23°C° 0 mm 4 mps 742 mmHg 83%
    20:00 +22°C° 0 mm 4 mps 742 mmHg 84%
    21:00 +22°C° 0.1 mm 4 mps 742 mmHg 86%
    22:00 +21°C° 0.1 mm 4 mps 742 mmHg 88%
    23:00 +21°C° 0.1 mm 4 mps 742 mmHg 90%

    22 July, Sunday

    Time Temperature Precipitation Wind Pressure Humidity
    00:00 +21°C° 0.4 mm 4 mps 742 mmHg 92%
    01:00 +20°C° 0.4 mm 4 mps 742 mmHg 93%
    02:00 +20°C° 0.4 mm 4 mps 742 mmHg 95%
    03:00 +20°C° 0 mm 4 mps 742 mmHg 95%
    04:00 +20°C° 0 mm 4 mps 742 mmHg 95%
    05:00 +21°C° 0 mm 4 mps 742 mmHg 95%
    06:00 +21°C° 0 mm 4 mps 742 mmHg 92%
    07:00 +22°C° 0 mm 5 mps 742 mmHg 90%
    08:00 +23°C° 0 mm 5 mps 742 mmHg 88%
    09:00 +23°C° 0.2 mm 5 mps 742 mmHg 86%
    10:00 +25°C° 0.2 mm 5 mps 742 mmHg 84%
    11:00 +25°C° 0.2 mm 5 mps 742 mmHg 82%
    12:00 +26°C° 0.4 mm 5 mps 742 mmHg 79%
    13:00 +27°C° 0.4 mm 5 mps 742 mmHg 76%
    14:00 +28°C° 0.4 mm 5 mps 742 mmHg 73%
    15:00 +27°C° 0.5 mm 4 mps 742 mmHg 74%
    16:00 +27°C° 0.5 mm 4 mps 742 mmHg 76%
    17:00 +27°C° 0.5 mm 4 mps 742 mmHg 77%
    18:00 +26°C° 0.7 mm 4 mps 742 mmHg 82%
    19:00 +25°C° 0.7 mm 3 mps 742 mmHg 87%
    20:00 +22°C° 0.7 mm 3 mps 742 mmHg 91%
    21:00 +22°C° 1.1 mm 3 mps 742 mmHg 93%
    22:00 +22°C° 1.1 mm 3 mps 742 mmHg 94%
    23:00 +21°C° 1.1 mm 3 mps 742 mmHg 96%
    Show more